Location: Pardubice
(50.0330°N, 15.7830°E)
Time: 11:02:44
(UTC+02:00)

Vanguard 1 - Visible Passes

Search period start: 07 October 2024 00:00
Search period end: 17 October 2024 00:00
Orbit: 649 x 3825 km, 34.3° (Epoch: 07 October)

Date Brightness Start Highest point End Pass type
(mag) Time Alt. Az. Time Alt. Az. Time Alt. Az.
07 Oct 14.2 03:44:20 10° SE 03:49:03 11° ESE 03:53:51 10° ESE visible
07 Oct 14.0 05:52:11 10° SSW 06:10:05 32° SE 06:27:32 10° E visible
08 Oct 14.1 03:57:10 10° SSE 04:07:46 16° SE 04:18:59 10° E visible
08 Oct 13.9 06:10:29 10° SSW 06:29:22 37° SSE 06:47:42 10° E visible
09 Oct 13.9 04:13:13 10° S 04:26:35 21° SE 04:41:04 10° E visible
09 Oct 13.8 06:29:06 10° SW 06:48:44 41° SSE 07:07:41 10° E visible
10 Oct 13.8 04:30:23 10° S 04:45:29 26° SE 05:02:08 10° E visible
11 Oct 13.7 04:48:12 10° SSW 05:04:31 32° SE 05:22:43 10° E visible
12 Oct 13.9 02:54:27 10° SSE 03:02:54 14° SE 03:12:18 10° E visible
12 Oct 13.7 05:06:28 10° SSW 05:23:39 36° SSE 05:42:57 10° E visible
13 Oct 13.7 03:10:13 10° SSE 03:21:32 19° SE 03:34:50 10° E visible
13 Oct 13.6 05:25:03 10° SW 05:42:54 41° SSE 06:03:01 10° E visible
14 Oct 13.5 03:28:46 13° S 03:40:16 25° SE 03:56:07 10° E visible
14 Oct 13.6 05:43:54 10° SW 06:02:16 45° SSE 06:22:55 10° E visible
15 Oct 13.4 03:47:40 16° S 03:59:08 30° SE 04:16:49 10° E visible
15 Oct 13.5 06:02:56 10° SW 06:21:43 48° SSE 06:42:43 10° E visible
16 Oct 13.7 01:53:52 10° SE 01:58:22 12° ESE 02:03:57 10° ESE visible
16 Oct 13.3 04:06:29 18° SSW 04:18:08 35° SE 04:37:10 10° E visible
16 Oct 13.5 06:22:09 10° WSW 06:41:14 50° S 07:02:25 10° ESE visible
